Regional Weather Roundup
Issued by NWS

Home | Current Version | Previous Version | Text Only | Print | Product List | Glossary On
Versions: 1 2 3 4 5 6 7 8 9 10 11 12 13 14 15 16 17 18 19 20 21 22 23 24 25 26 27 28 29 30 31 32 33 34 35 36 37 38 39 40 41 42 43 44 45 46 47 48 49 50
243
ASUS43 KDTX 132310
RWRMI
MICHIGAN HOURLY REGIONAL WEATHER ROUNDUP
NATIONAL WEATHER SERVICE DETROIT/PONTIAC MI
600 PM EST SAT FEB 13 2016

NOTE: "FAIR" INDICATES FEW OR NO CLOUDS BELOW 12,000 FEET WITH NO
SIGNIFICANT WEATHER AND/OR OBSTRUCTION TO VISIBILITY.

MIZ047>049-052>055-059>063-066>070-074>076-081>083-140000-
SOUTHEAST LOWER MICHIGAN

CITY           SKY/WX    TMP DP  RH WIND       PRES   REMARKS
ADRIAN         CLOUDY    15   2  56 NW10      30.45R WCI   2
ALMA           CLOUDY    14   4  64 NW8       30.44F WCI   3
ANN ARBOR      MOCLDY    13   3  64 N7        30.43R WCI   3
BAD AXE        CLOUDY     6  -2  68 W5        30.43S WCI  -3
CARO           CLEAR      3  -8  60 CALM      30.44S
DETROIT CITY   CLOUDY    13  -3  49 N10       30.45R WCI   0
DETROIT        LGT SNOW  12   3  67 W6        30.46S WCI   3
FLINT          PTCLDY     9  -1  64 W6        30.44R WCI  -1
GROSSE ILE     MOCLDY    12   5  73 NW5       30.44S WCI   4
HILLSDALE      FLURRIES  13   3  63 NW10G17   30.41R WCI   0
HOWELL         PTCLDY    11   3  67 NW5       30.42R WCI   3

CITY           SKY/WX    TMP DP  RH WIND       PRES   REMARKS
JACKSON        CLOUDY    13  -2  51 NW12      30.42R WCI  -1
LAMBERTVILLE   CLOUDY    15   5  66 N5        30.46R WCI   7
LANSING        CLOUDY    13  -1  54 NW12      30.45R WCI  -1
LAPEER         FAIR       8  -4  59 CALM      30.43S
MASON          MOCLDY    12   1  62 W7        30.43S WCI   1
MONROE         CLOUDY    15   3  59 NW5       30.45R WCI   7
MT. CLEMENS    PTCLDY     9  -4  55 N12       30.44R WCI  -5
PONTIAC        MOCLDY    10  -1  61 NW10      30.41R WCI  -4
PORT HOPE        N/A     10  -6  48 NW13      30.41S WCI  -5
PORT HURON     CLEAR      7  -6  56 NW3       30.46R
TRI CITIES     CLOUDY    11  -2  56 SE3       30.45S
MIDLAND        MOCLDY    12  -5  47 NW3       30.44S
TROY           MOCLDY    13  -1  51 N5        30.46R WCI   6
SAGINAW HB     PTCLDY     9   1  72 CALM      30.45S
$$
MIZ043>046-050>051-056>058-064>065-071>073-077>080-140000-
SOUTHWEST LOWER MICHIGAN

CITY           SKY/WX    TMP DP  RH WIND       PRES   REMARKS
BATTLE CREEK   CLOUDY    13   2  61 NW13      30.45R WCI  -2
BENTON HARBOR  CLOUDY    15   5  64 NW8       30.51S WCI   4
BIG RAPIDS     CLOUDY    12   0  57 NW8       30.42S WCI   1
COLDWATER      CLOUDY    14   3  61 NW12      30.45R WCI   1
FREMONT        CLOUDY    12   0  59 NW6       30.46S WCI   2
HOLLAND        LGT SNOW  15   6  67 NW9       30.48F WCI   3
GRAND RAPIDS   MOCLDY    14   3  61 NW12      30.46R WCI   0
IONIA          MOCLDY    13  -2  50 NW12      30.44S WCI   0
KALAMAZOO      LGT SNOW  14   4  64 NW9       30.47R WCI   2
LUDINGTON      CLOUDY    13   2  62 NW6       30.48S WCI   4
MARSHALL       MOCLDY    13   2  62 W10       30.43S WCI   0
MOUNT PLEASANT CLOUDY    13   3  64 CALM      30.43S
MUSKEGON       LGT SNOW  13   4  67 N5        30.49S VSB 1   WCI   5
SOUTH HAVEN    FLURRIES  15   6  67 N10       30.50S WCI   2
$$
MIZ016>042-140000-
NORTHERN LOWER MICHIGAN

CITY           SKY/WX    TMP DP  RH WIND       PRES   REMARKS
ALPENA         PTCLDY     5 -10  50 W5        30.42S WCI  -4
BEAVER ISLAND  CLOUDY    12   4  69 NW12G18   30.42R HAZE    WCI  -2
BELLAIRE       CLOUDY     9   5  84 CALM      30.44R
CADILLAC       PTCLDY     9   1  71 NW10      30.37R WCI  -6
CHARLEVOIX     LGT SNOW   9   4  80 CALM      30.45R
FRANKFORT      CLOUDY    13   2  62 NW5       30.47R WCI   5
GAYLORD        PTCLDY     6  -4  63 W5        30.35R WCI  -3
GRAYLING       MOCLDY     6  -6  58 NW3       30.38S
HARBOR SPRINGS CLEAR      8  -2  63 CALM      30.41S
HOUGHTON LAKE  MOCLDY     9  -3  58 W9        30.38S WCI  -4
MANISTEE       CLOUDY    12   0  57 NW8       30.47R WCI   1
OSCODA         CLEAR      8  -9  46 NW8       30.43R WCI  -5
PELLSTON       PTCLDY     6  -3  66 W7        30.42R WCI  -6
ROGERS CITY    CLOUDY     7  -7  54 W9        30.42S WCI  -7
TRAVERSE CITY  LGT SNOW  12   6  77 W13       30.43R WCI  -3
$$
MIZ007>008-015-140000-
EASTERN UPPER MICHIGAN

CITY           SKY/WX    TMP DP  RH WIND       PRES   REMARKS
KINROSS        CLOUDY     3   0  85 CALM      30.39R
MACKINAC ISLAN CLEAR      6  -2  71 W8        30.40R WCI  -7
NEWBERRY       CLOUDY     8   2  80 W6        30.38R WCI  -3
S. S. MARIE    LGT SNOW   2  -3  80 SW3       30.39R
MUNISING         N/A     11  -1  58 NW10G22   30.44R WCI  -3
$$
MIZ004>006-011>014-085-140000-
CENTRAL UPPER MICHIGAN

CITY           SKY/WX    TMP DP  RH WIND       PRES   REMARKS
MANISTIQUE     CLOUDY     8   2  76 W10       30.44R WCI  -6
ESCANABA       CLEAR     12  -9  37 NW5       30.45F WCI   4
MENOMINEE      CLEAR     14  -8  37 N3        30.45F
SAWYER-GWINN   PTCLDY     5  -4  66 N7        30.39S WCI  -7
$$
MIZ001>003-009>011-084-140000-
WESTERN UPPER MICHIGAN

CITY           SKY/WX    TMP DP  RH WIND       PRES   REMARKS
IRON MOUNTAIN  CLEAR     11  -6  46 NW8       30.39F WCI  -1
HOUGHTON       LGT SNOW   4  -2  76 NW9       30.40S WCI -10
COPPER HARBOR    N/A      8   1  73 N9        30.44S WCI  -5
IRONWOOD       CLEAR      7  -9  47 CALM      30.38F
$$

ABBREVIATIONS USED IN REMARKS
   TC - TEMPERATURE IN CELSIUS
  WCI - WIND CHILL INDEX
   HX - HEAT INDEX
  VSB - VISIBILITY





USA.gov is the U.S. government's official web portal to all federal, state and local government web resources and services.